,,Stat6,,Stat2,,Stat8,,Stat9,,Stat10,,Wind1,,Wind1,
time,status,PA1M_AVG,status,PR1M_SUM,status,RH1M_AVG,status,SR1M_AVG,status,TA1M_AVG,status,W1dAve1m,status,W1sAve1m,
2007-12-24, 00:00:00,VALID,917.144,VALID,0,VALID,100,VALID,-0.0339617,VALID,20.0427,VALID,249,VALID,0,
2007-12-24, 00:01:00,VALID,917.122,VALID,0,VALID,100,VALID,-0.0339617,VALID,20.0592,VALID,249,VALID,0,
2007-12-24, 00:02:00,VALID,917.116,VALID,0,VALID,100,VALID,-0.0339617,VALID,20.0233,VALID,312,VALID,0.420945,
2007-12-24, 00:03:00,VALID,917.09,VALID,0,VALID,100,VALID,-0.0339617,VALID,20.0003,VALID,39,VALID,1.16548,
2007-12-24, 00:04:00,VALID,917.087,VALID,0,VALID,100,VALID,0,VALID,20.023,VALID,27,VALID,0.916349,
2007-12-24, 00:05:00,VALID,917.086,VALID,0,VALID,100,VALID,0.0169808,VALID,20.0427,VALID,15,VALID,0.566497,
2007-12-24, 00:06:00,VALID,917.088,VALID,0,VALID,100,VALID,0,VALID,20.0163,VALID,7,VALID,0.602679,
2007-12-24, 00:07:00,VALID,917.081,VALID,0,VALID,100,VALID,-0.0339617,VALID,19.9749,VALID,7,VALID,0.636186,
2007-12-24, 00:08:00,VALID,917.079,VALID,0,VALID,100,VALID,-0.0169808,VALID,19.9651,VALID,14,VALID,0.812847,
2007-12-24, 00:09:00,VALID,917.087,VALID,0,VALID,100,VALID,0,VALID,19.9516,VALID,349,VALID,0.666349,
2007-12-24, 00:10:00,VALID,917.081,VALID,0,VALID,100,VALID,0,VALID,19.9584,VALID,7,VALID,0.752976,
2007-12-24, 00:11:00,VALID,917.094,VALID,0,VALID,100,VALID,-0.0169808,VALID,19.9579,VALID,10,VALID,0.963942,
2007-12-24, 00:12:00,VALID,917.1,VALID,0,VALID,100,VALID,-0.0339617,VALID,19.9654,VALID,4,VALID,0.828711,
2007-12-24, 00:13:00,VALID,917.112,VALID,0,VALID,100,VALID,0,VALID,19.9581,VALID,5,VALID,0.740916,
2007-12-24, 00:14:00,VALID,917.121,VALID,0,VALID,100,VALID,-0.0339617,VALID,19.9519,VALID,14,VALID,0.950247,
2007-12-24, 00:15:00,VALID,917.15,VALID,0,VALID,100,VALID,-0.0339617,VALID,19.9516,VALID,20,VALID,0.831659,
2007-12-24, 00:16:00,VALID,917.153,VALID,0,VALID,100,VALID,-0.0339617,VALID,19.9524,VALID,14,VALID,0.691883,
2007-12-24, 00:17:00,VALID,917.152,VALID,0,VALID,100,VALID,-0.0169808,VALID,19.9516,VALID,14,VALID,0.440387,
2007-12-24, 00:18:00,VALID,917.14,VALID,0,VALID,100,VALID,-0.0169808,VALID,19.9422,VALID,29,VALID,0.894618,
2007-12-24, 00:19:00,VALID,917.143,VALID,0,VALID,100,VALID,0,VALID,19.9254,VALID,37,VALID,0.89226,
2007-12-24, 00:20:00,VALID,917.141,VALID,0,VALID,100,VALID,0,VALID,19.9095,VALID,33,VALID,0.597747,
2007-12-24, 00:21:00,VALID,917.138,VALID,0,VALID,100,VALID,0,VALID,19.9459,VALID,25,VALID,0.652344,
2007-12-24, 00:22:00,VALID,917.124,VALID,0,VALID,100,VALID,-0.0339617,VALID,19.9451,VALID,14,VALID,0.650841,
2007-12-24, 00:23:00,VALID,917.11,VALID,0,VALID,100,VALID,0,VALID,19.9489,VALID,10,VALID,0.442336,
2007-12-24, 00:24:00,VALID,917.095,VALID,0,VALID,100,VALID,0,VALID,19.9359,VALID,10,VALID,0.176153,
2007-12-24, 00:25:00,VALID,917.081,VALID,0,VALID,100,VALID,-0.0339617,VALID,19.9197,VALID,334,VALID,0.490885,
2007-12-24, 00:26:00,VALID,917.077,VALID,0,VALID,100,VALID,-0.0509425,VALID,19.9167,VALID,330,VALID,0.436592,
2007-12-24, 00:27:00,VALID,917.053,VALID,0,VALID,100,VALID,-0.0509425,VALID,19.9454,VALID,2,VALID,0.767045,
2007-12-24, 00:28:00,VALID,917.048,VALID,0,VALID,100,VALID,0,VALID,19.9616,VALID,12,VALID,0.975818,
2007-12-24, 00:29:00,VALID,917.048,VALID,0,VALID,100,VALID,-0.0679233,VALID,19.9651,VALID,10,VALID,0.877131,
2007-12-24, 00:30:00,VALID,917.055,VALID,0,VALID,100,VALID,-0.0169808,VALID,19.9581,VALID,10,VALID,0.813565,
2007-12-24, 00:31:00,VALID,917.033,VALID,0,VALID,100,VALID,-0.0169808,VALID,19.9554,VALID,10,VALID,0.762835,
2007-12-24, 00:32:00,VALID,917.018,VALID,0,VALID,100,VALID,-0.0169808,VALID,19.9387,VALID,5,VALID,0.801282,
2007-12-24, 00:33:00,VALID,916.998,VALID,0,VALID,100,VALID,-0.0509425,VALID,19.9456,VALID,12,VALID,0.608487,
2007-12-24, 00:34:00,VALID,916.97,VALID,0,VALID,100,VALID,-0.0679233,VALID,19.9556,VALID,13,VALID,0.404726,
2007-12-24, 00:35:00,VALID,916.937,VALID,0,VALID,100,VALID,0,VALID,19.9554,VALID,10,VALID,0.361737,
2007-12-24, 00:36:00,VALID,916.91,VALID,0,VALID,100,VALID,-0.0169808,VALID,19.9519,VALID,3,VALID,0.311719,
2007-12-24, 00:37:00,VALID,916.891,VALID,0,VALID,100,VALID,-0.0169808,VALID,19.9389,VALID,350,VALID,0.364309,
2007-12-24, 00:38:00,VALID,916.875,VALID,0,VALID,100,VALID,0,VALID,19.9322,VALID,346,VALID,0.0681323,
2007-12-24, 00:39:00,VALID,916.873,VALID,0,VALID,100,VALID,0,VALID,19.9189,VALID,346,VALID,0,
2007-12-24, 00:40:00,VALID,916.872,VALID,0,VALID,100,VALID,-0.0169808,VALID,19.9414,VALID,346,VALID,0,
2007-12-24, 00:41:00,VALID,916.872,VALID,0,VALID,100,VALID,-0.0169808,VALID,19.9546,VALID,346,VALID,0,
2007-12-24, 00:42:00,VALID,916.888,VALID,0,VALID,100,VALID,0.0339617,VALID,19.9644,VALID,346,VALID,0,
2007-12-24, 00:43:00,VALID,916.895,VALID,0,VALID,100,VALID,0.0509425,VALID,19.9636,VALID,346,VALID,0.0215872,
2007-12-24, 00:44:00,VALID,916.907,VALID,0,VALID,100,VALID,0.0339617,VALID,19.9863,VALID,360,VALID,0.550595,
2007-12-24, 00:45:00,VALID,916.917,VALID,0,VALID,100,VALID,0.0849042,VALID,19.9995,VALID,6,VALID,0.611458,
2007-12-24, 00:46:00,VALID,916.928,VALID,0,VALID,100,VALID,0,VALID,19.9833,VALID,358,VALID,0.449826,
2007-12-24, 00:47:00,VALID,916.941,VALID,0,VALID,100,VALID,0,VALID,19.9571,VALID,358,VALID,0.388393,
2007-12-24, 00:48:00,VALID,916.934,VALID,0,VALID,100,VALID,0,VALID,19.9639,VALID,358,VALID,0.273438,
2007-12-24, 00:49:00,VALID,916.941,VALID,0,VALID,100,VALID,0.0339617,VALID,19.9571,VALID,358,VALID,0.252418,
2007-12-24, 00:50:00,VALID,916.927,VALID,0,VALID,100,VALID,0.0169808,VALID,19.9541,VALID,358,VALID,0,
2007-12-24, 00:51:00,VALID,916.917,VALID,0,VALID,100,VALID,0.0679233,VALID,19.9474,VALID,355,VALID,0.110465,
2007-12-24, 00:52:00,VALID,916.908,VALID,0,VALID,100,VALID,0.0339617,VALID,19.9347,VALID,334,VALID,0.16276,
2007-12-24, 00:53:00,VALID,916.897,VALID,0,VALID,100,VALID,0.0509425,VALID,19.9282,INVALID,360,VALID,0,
2007-12-24, 00:54:00,VALID,916.892,VALID,0,VALID,100,VALID,0.0169808,VALID,19.9287,VALID,333,VALID,0,
2007-12-24, 00:55:00,VALID,916.88,VALID,0,VALID,100,VALID,0.0509425,VALID,19.9209,VALID,333,VALID,0,
2007-12-24, 00:56:00,VALID,916.877,VALID,0,VALID,100,VALID,0.0169808,VALID,19.9379,VALID,333,VALID,0,
2007-12-24, 00:57:00,VALID,916.874,VALID,0,VALID,100,VALID,-0.0339617,VALID,19.9516,VALID,333,VALID,0,
2007-12-24, 00:58:00,VALID,916.875,VALID,0,VALID,100,VALID,-0.0339617,VALID,19.9716,VALID,333,VALID,0,
2007-12-24, 00:59:00,VALID,916.867,VALID,0,VALID,100,VALID,-0.0509425,VALID,19.9743,VALID,333,VALID,0,
2007-12-24, 01:00:00,VALID,916.862,VALID,0,VALID,100,VALID,-0.0849042,VALID,20.0105,VALID,333,VALID,0,
2007-12-24, 01:01:00,VALID,916.853,VALID,0,VALID,100,VALID,-0.0509425,VALID,20.0228,VALID,333,VALID,0,
2007-12-24, 01:02:00,VALID,916.854,VALID,0,VALID,100,VALID,0,VALID,20.049,VALID,333,VALID,0,
2007-12-24, 01:03:00,VALID,916.843,VALID,0,VALID,100,VALID,-0.0339617,VALID,20.0657,VALID,333,VALID,0,
2007-12-24, 01:04:00,VALID,916.832,VALID,0,VALID,100,VALID,-0.0509425,VALID,20.0819,VALID,333,VALID,0,
2007-12-24, 01:05:00,VALID,916.821,VALID,0,VALID,100,VALID,-0.0339617,VALID,20.0784,VALID,333,VALID,0,
2007-12-24, 01:06:00,VALID,916.801,VALID,0,VALID,100,VALID,-0.0339617,VALID,20.0684,VALID,333,VALID,0,
2007-12-24, 01:07:00,VALID,916.774,VALID,0,VALID,100,VALID,-0.0169808,VALID,20.0784,VALID,333,VALID,0,
2007-12-24, 01:08:00,VALID,916.751,VALID,0,VALID,100,VALID,-0.0339617,VALID,20.1017,VALID,333,VALID,0,
2007-12-24, 01:09:00,VALID,916.74,VALID,0,VALID,100,VALID,-0.0509425,VALID,20.0976,VALID,333,VALID,0,
2007-12-24, 01:10:00,VALID,916.717,VALID,0,VALID,100,VALID,0,VALID,20.0941,VALID,333,VALID,0,
2007-12-24, 01:11:00,VALID,916.702,VALID,0,VALID,100,VALID,-0.0509425,VALID,20.0887,VALID,333,VALID,0,
2007-12-24, 01:12:00,VALID,916.678,VALID,0,VALID,100,VALID,-0.0509425,VALID,20.1044,VALID,333,VALID,0,
2007-12-24, 01:13:00,VALID,916.662,VALID,0,VALID,100,VALID,-0.0509425,VALID,20.1274,VALID,351,VALID,0,
2007-12-24, 01:14:00,VALID,916.659,VALID,0,VALID,100,VALID,-0.0509425,VALID,20.1241,VALID,3,VALID,0,
2007-12-24, 01:15:00,VALID,916.65,VALID,0,VALID,100,VALID,-0.0509425,VALID,20.0976,VALID,3,VALID,0,
2007-12-24, 01:16:00,VALID,916.626,VALID,0,VALID,100,VALID,0,VALID,20.0944,VALID,3,VALID,0,
2007-12-24, 01:17:00,VALID,916.612,VALID,0,VALID,100,VALID,-0.0509425,VALID,20.062,VALID,7,VALID,0,
2007-12-24, 01:18:00,VALID,916.602,VALID,0,VALID,100,VALID,-0.0679233,VALID,20.0525,VALID,8,VALID,0.0347842,
2007-12-24, 01:19:00,VALID,916.598,VALID,0,VALID,100,VALID,-0.0849042,VALID,19.9973,VALID,8,VALID,0.727983,
2007-12-24, 01:20:00,VALID,916.584,VALID,0,VALID,100,VALID,-0.0339617,VALID,19.9749,VALID,24,VALID,0.828869,
2007-12-24, 01:21:00,VALID,916.555,VALID,0,VALID,100,VALID,-0.0339617,VALID,19.9551,VALID,5,VALID,0.7258,
2007-12-24, 01:22:00,VALID,916.558,VALID,0,VALID,100,VALID,-0.0509425,VALID,19.9394,VALID,354,VALID,0.68388,
2007-12-24, 01:23:00,VALID,916.529,VALID,0,VALID,100,VALID,-0.0169808,VALID,19.9092,VALID,348,VALID,0.42569,
2007-12-24, 01:24:00,VALID,916.497,VALID,0,VALID,100,VALID,-0.0339617,VALID,19.9357,VALID,354,VALID,0.618096,
2007-12-24, 01:25:00,VALID,916.465,VALID,0,VALID,100,VALID,-0.0509425,VALID,19.9424,VALID,359,VALID,0.70805,
2007-12-24, 01:26:00,VALID,916.448,VALID,0,VALID,100,VALID,-0.0169808,VALID,19.9292,VALID,14,VALID,0.510174,
2007-12-24, 01:27:00,VALID,916.414,VALID,0,VALID,100,VALID,-0.0509425,VALID,19.9289,VALID,15,VALID,0.657703,
2007-12-24, 01:28:00,VALID,916.401,VALID,0,VALID,100,VALID,-0.0339617,VALID,19.8937,VALID,1,VALID,0.641715,
2007-12-24, 01:29:00,VALID,916.382,VALID,0,VALID,100,VALID,-0.0509425,VALID,19.8905,VALID,352,VALID,0.492759,
2007-12-24, 01:30:00,VALID,916.362,VALID,0,VALID,100,VALID,-0.0509425,VALID,19.8875,VALID,352,VALID,0.222396,
2007-12-24, 01:31:00,VALID,916.348,VALID,0,VALID,100,VALID,-0.0169808,VALID,19.8967,VALID,360,VALID,0.460582,
2007-12-24, 01:32:00,VALID,916.341,VALID,0,VALID,100,VALID,-0.0679233,VALID,19.9359,VALID,12,VALID,0.766715,
2007-12-24, 01:33:00,VALID,916.328,VALID,0,VALID,100,VALID,-0.0679233,VALID,19.9754,VALID,25,VALID,1.09449,
2007-12-24, 01:34:00,VALID,916.325,VALID,0,VALID,100,VALID,-0.0509425,VALID,19.9941,VALID,27,VALID,0.706321,
2007-12-24, 01:35:00,VALID,916.3,VALID,0,VALID,100,VALID,-0.0509425,VALID,19.9906,VALID,27,VALID,0.704687,
2007-12-24, 01:36:00,VALID,916.285,VALID,0,VALID,100,VALID,-0.0339617,VALID,20.0205,VALID,26,VALID,1.02716,
2007-12-24, 01:37:00,VALID,916.284,VALID,0,VALID,100,VALID,-0.0339617,VALID,20.01,VALID,26,VALID,0.583212,
2007-12-24, 01:38:00,VALID,916.264,VALID,0,VALID,100,VALID,-0.0679233,VALID,20.0035,VALID,26,VALID,0.493037,
2007-12-24, 01:39:00,VALID,916.266,VALID,0,VALID,100,VALID,-0.0679233,VALID,20.0038,VALID,26,VALID,0.103924,
2007-12-24, 01:40:00,VALID,916.263,VALID,0,VALID,100,VALID,-0.0339617,VALID,20.0038,VALID,26,VALID,0.0166903,
2007-12-24, 01:41:00,VALID,916.252,VALID,0,VALID,100,VALID,-0.0169808,VALID,19.9936,VALID,23,VALID,0.520774,
2007-12-24, 01:42:00,VALID,916.24,VALID,0,VALID,100,VALID,-0.0509425,VALID,19.9846,VALID,25,VALID,0.430804,
2007-12-24, 01:43:00,VALID,916.216,VALID,0,VALID,100,VALID,-0.0509425,VALID,19.9913,VALID,23,VALID,0.63956,
2007-12-24, 01:44:00,VALID,916.19,VALID,0,VALID,100,VALID,-0.0849042,VALID,19.9948,VALID,22,VALID,0.271391,
2007-12-24, 01:45:00,VALID,916.164,VALID,0,VALID,100,VALID,-0.0679233,VALID,19.9946,VALID,22,VALID,0.634673,
2007-12-24, 01:46:00,VALID,916.144,VALID,0,VALID,100,VALID,-0.0679233,VALID,19.9881,VALID,311,VALID,0.337305,
2007-12-24, 01:47:00,VALID,916.128,VALID,0,VALID,100,VALID,-0.0849042,VALID,19.9459,VALID,11,VALID,0.870916,
2007-12-24, 01:48:00,VALID,916.115,VALID,0,VALID,100,VALID,-0.0339617,VALID,19.881,VALID,356,VALID,0.804688,
2007-12-24, 01:49:00,VALID,916.1,VALID,0,VALID,100,VALID,-0.0679233,VALID,19.8446,VALID,3,VALID,0.604802,
2007-12-24, 01:50:00,VALID,916.06,VALID,0,VALID,100,VALID,-0.0679233,VALID,19.8323,VALID,11,VALID,0.908668,
2007-12-24, 01:51:00,VALID,916.052,VALID,0,VALID,100,VALID,-0.0849042,VALID,19.8161,VALID,11,VALID,0.753646,
2007-12-24, 01:52:00,VALID,916.016,VALID,0,VALID,100,VALID,-0.0339617,VALID,19.7964,VALID,4,VALID,0.511347,
2007-12-24, 01:53:00,VALID,915.986,VALID,0,VALID,100,VALID,-0.0339617,VALID,19.7737,VALID,334,VALID,0.680876,
2007-12-24, 01:54:00,VALID,915.953,VALID,0,VALID,100,VALID,-0.0849042,VALID,19.7642,VALID,3,VALID,0.909412,
2007-12-24, 01:55:00,VALID,915.921,VALID,0,VALID,100,VALID,-0.0339617,VALID,19.7545,VALID,13,VALID,1.34661,
2007-12-24, 01:56:00,VALID,915.896,VALID,0,VALID,100,VALID,-0.0509425,VALID,19.7352,VALID,22,VALID,1.40516,
2007-12-24, 01:57:00,VALID,915.869,VALID,0,VALID,100,VALID,-0.0339617,VALID,19.7223,VALID,25,VALID,1.66033,
2007-12-24, 01:58:00,VALID,915.871,VALID,0,VALID,100,VALID,0,VALID,19.7155,VALID,20,VALID,1.05469,
2007-12-24, 01:59:00,VALID,915.859,VALID,0,VALID,100,VALID,-0.0169808,VALID,19.7155,VALID,16,VALID,0.385069,
2007-12-24, 02:00:00,VALID,915.836,VALID,0,VALID,100,VALID,-0.0169808,VALID,19.6953,VALID,23,VALID,0.466654,
2007-12-24, 02:01:00,VALID,915.81,VALID,0,VALID,100,VALID,-0.0509425,VALID,19.6993,VALID,16,VALID,0.690278,
2007-12-24, 02:02:00,VALID,915.813,VALID,0,VALID,100,VALID,-0.0849042,VALID,19.6863,VALID,358,VALID,0.692224,
2007-12-24, 02:03:00,VALID,915.803,VALID,0,VALID,100,VALID,-0.0679233,VALID,19.6801,VALID,335,VALID,0.719122,
2007-12-24, 02:04:00,VALID,915.792,VALID,0,VALID,100,VALID,-0.0849042,VALID,19.6661,VALID,323,VALID,0.558254,
2007-12-24, 02:05:00,VALID,915.786,VALID,0,VALID,100,VALID,-0.0339617,VALID,19.6604,VALID,333,VALID,0.0995164,
2007-12-24, 02:06:00,VALID,915.769,VALID,0,VALID,100,VALID,-0.0679233,VALID,19.6504,VALID,342,VALID,0.396621,
2007-12-24, 02:07:00,VALID,915.772,VALID,0,VALID,100,VALID,-0.0849042,VALID,19.6409,VALID,16,VALID,0.423651,
2007-12-24, 02:08:00,VALID,915.741,VALID,0,VALID,100,VALID,-0.0339617,VALID,19.6409,VALID,16,VALID,0.37832,
2007-12-24, 02:09:00,VALID,915.736,VALID,0,VALID,100,VALID,-0.0509425,VALID,19.6504,VALID,16,VALID,0.2234,
2007-12-24, 02:10:00,VALID,915.727,VALID,0,VALID,100,VALID,-0.0509425,VALID,19.6506,VALID,16,VALID,0,
2007-12-24, 02:11:00,VALID,915.709,VALID,0,VALID,100,VALID,-0.0509425,VALID,19.6501,VALID,11,VALID,0,
2007-12-24, 02:12:00,VALID,915.684,VALID,0,VALID,100,VALID,-0.0509425,VALID,19.6429,VALID,8,VALID,0,
2007-12-24, 02:13:00,VALID,915.649,VALID,0,VALID,100,VALID,-0.0509425,VALID,19.6531,VALID,8,VALID,0,
2007-12-24, 02:14:00,VALID,915.627,VALID,0,VALID,100,VALID,-0.0679233,VALID,19.6733,VALID,8,VALID,0,
2007-12-24, 02:15:00,VALID,915.607,VALID,0,VALID,100,VALID,-0.0169808,VALID,19.6726,VALID,11,VALID,0.387153,
2007-12-24, 02:16:00,VALID,915.6,VALID,0,VALID,100,VALID,-0.0169808,VALID,19.6691,VALID,15,VALID,0.243517,
2007-12-24, 02:17:00,VALID,915.603,VALID,0,VALID,100,VALID,-0.0339617,VALID,19.6826,VALID,313,VALID,0,
2007-12-24, 02:18:00,VALID,915.601,VALID,0,VALID,100,VALID,-0.0169808,VALID,19.6926,VALID,316,VALID,0.000390625,
2007-12-24, 02:19:00,VALID,915.594,VALID,0,VALID,100,VALID,-0.0509425,VALID,19.7055,VALID,28,VALID,0.51029,
2007-12-24, 02:20:00,VALID,915.595,VALID,0,VALID,100,VALID,-0.0169808,VALID,19.718,VALID,36,VALID,0.262005,
2007-12-24, 02:21:00,VALID,915.6,VALID,0,VALID,100,VALID,-0.0339617,VALID,19.7245,VALID,36,VALID,0,
2007-12-24, 02:22:00,VALID,915.585,VALID,0,VALID,100,VALID,-0.0339617,VALID,19.7642,VALID,36,VALID,0,
2007-12-24, 02:23:00,VALID,915.576,VALID,0,VALID,100,VALID,-0.0509425,VALID,19.7707,VALID,36,VALID,0,
2007-12-24, 02:24:00,VALID,915.573,VALID,0,VALID,100,VALID,-0.0679233,VALID,19.7572,VALID,36,VALID,0.0245276,
2007-12-24, 02:25:00,VALID,915.564,VALID,0,VALID,100,VALID,-0.0849042,VALID,19.7572,VALID,36,VALID,0,
2007-12-24, 02:26:00,VALID,915.565,VALID,0,VALID,100,VALID,-0.101885,VALID,19.7512,VALID,36,VALID,0,
2007-12-24, 02:27:00,VALID,915.553,VALID,0,VALID,100,VALID,0.0169808,VALID,19.7243,VALID,30,VALID,0,
2007-12-24, 02:28:00,VALID,915.547,VALID,0,VALID,100,VALID,0.0339617,VALID,19.7043,VALID,24,VALID,0,
2007-12-24, 02:29:00,VALID,915.544,VALID,0,VALID,100,VALID,0.0339617,VALID,19.711,VALID,24,VALID,0,
2007-12-24, 02:30:00,VALID,915.54,VALID,0,VALID,100,VALID,0.0339617,VALID,19.7013,VALID,24,VALID,0,
2007-12-24, 02:31:00,VALID,915.529,VALID,0,VALID,100,VALID,0.0339617,VALID,19.7041,VALID,24,VALID,0,
2007-12-24, 02:32:00,VALID,915.534,VALID,0,VALID,100,VALID,0.0509425,VALID,19.7238,VALID,24,VALID,0,
2007-12-24, 02:33:00,VALID,915.529,VALID,0,VALID,100,VALID,0.0169808,VALID,19.7073,VALID,353,VALID,0.297602,
2007-12-24, 02:34:00,VALID,915.498,VALID,0,VALID,100,VALID,0.0169808,VALID,19.6881,VALID,350,VALID,0,
2007-12-24, 02:35:00,VALID,915.472,VALID,0,VALID,100,VALID,0.0339617,VALID,19.6816,VALID,350,VALID,0,
2007-12-24, 02:36:00,VALID,915.468,VALID,0,VALID,100,VALID,0.0339617,VALID,19.6883,VALID,351,VALID,0,
2007-12-24, 02:37:00,VALID,915.457,VALID,0,VALID,100,VALID,0.0339617,VALID,19.6946,VALID,351,VALID,0,
2007-12-24, 02:38:00,VALID,915.433,VALID,0,VALID,100,VALID,0.0509425,VALID,19.6883,VALID,351,VALID,0,
2007-12-24, 02:39:00,VALID,915.447,VALID,0,VALID,100,VALID,0.0339617,VALID,19.6686,VALID,351,VALID,0,
2007-12-24, 02:40:00,VALID,915.43,VALID,0,VALID,100,VALID,0.0339617,VALID,19.6551,VALID,351,VALID,0,
2007-12-24, 02:41:00,VALID,915.408,VALID,0,VALID,100,VALID,0,VALID,19.6494,VALID,351,VALID,0,
2007-12-24, 02:42:00,VALID,915.39,VALID,0,VALID,100,VALID,-0.0849042,VALID,19.6369,VALID,351,VALID,0,
2007-12-24, 02:43:00,VALID,915.37,VALID,0,VALID,100,VALID,-0.101885,VALID,19.6214,VALID,351,VALID,0,
2007-12-24, 02:44:00,VALID,915.34,VALID,0,VALID,100,VALID,-0.101885,VALID,19.6179,VALID,351,VALID,0,
2007-12-24, 02:45:00,VALID,915.306,VALID,0,VALID,100,VALID,-0.101885,VALID,19.6252,VALID,351,VALID,0,
2007-12-24, 02:46:00,VALID,915.279,VALID,0,VALID,100,VALID,-0.101885,VALID,19.6217,VALID,351,VALID,0,
2007-12-24, 02:47:00,VALID,915.258,VALID,0,VALID,100,VALID,-0.0339617,VALID,19.6182,VALID,351,VALID,0.076527,
2007-12-24, 02:48:00,VALID,915.233,VALID,0,VALID,100,VALID,-0.101885,VALID,19.6282,VALID,351,VALID,0,
2007-12-24, 02:49:00,VALID,915.216,VALID,0,VALID,100,VALID,-0.101885,VALID,19.6344,VALID,351,VALID,0,
2007-12-24, 02:50:00,VALID,915.192,VALID,0,VALID,100,VALID,-0.0339617,VALID,19.6145,VALID,351,VALID,0,
2007-12-24, 02:51:00,VALID,915.177,VALID,0,VALID,100,VALID,-0.0679233,VALID,19.6147,VALID,351,VALID,0,
2007-12-24, 02:52:00,VALID,915.136,VALID,0,VALID,100,VALID,-0.0679233,VALID,19.6015,VALID,26,VALID,0.430043,
2007-12-24, 02:53:00,VALID,915.088,VALID,0,VALID,100,VALID,-0.0679233,VALID,19.602,VALID,54,VALID,0.770597,
2007-12-24, 02:54:00,VALID,915.076,VALID,0,VALID,100,VALID,-0.0849042,VALID,19.599,VALID,24,VALID,0.679869,
2007-12-24, 02:55:00,VALID,915.067,VALID,0,VALID,100,VALID,-0.0339617,VALID,19.5885,VALID,34,VALID,0.254102,
2007-12-24, 02:56:00,VALID,915.067,VALID,0,VALID,100,VALID,-0.0679233,VALID,19.5857,VALID,34,VALID,0,
2007-12-24, 02:57:00,VALID,915.052,VALID,0,VALID,100,VALID,-0.0679233,VALID,19.5857,VALID,34,VALID,0,
2007-12-24, 02:58:00,VALID,915.048,VALID,0,VALID,100,VALID,-0.0679233,VALID,19.5695,VALID,34,VALID,0,
2007-12-24, 02:59:00,VALID,915.038,VALID,0,VALID,100,VALID,-0.0679233,VALID,19.5728,VALID,34,VALID,0,
2007-12-24, 03:00:00,VALID,915.027,VALID,0,VALID,100,VALID,-0.101885,VALID,19.5663,VALID,34,VALID,0,
2007-12-24, 03:01:00,VALID,915.044,VALID,0,VALID,100,VALID,-0.101885,VALID,19.5663,VALID,34,VALID,0,
2007-12-24, 03:02:00,VALID,915.044,VALID,0,VALID,100,VALID,-0.101885,VALID,19.5827,VALID,32,VALID,0.324673,
2007-12-24, 03:03:00,VALID,915.036,VALID,0,VALID,100,VALID,-0.0849042,VALID,19.5952,VALID,34,VALID,1.01953,
2007-12-24, 03:04:00,VALID,915.021,VALID,0,VALID,100,VALID,-0.0849042,VALID,19.5728,VALID,38,VALID,0.939787,
2007-12-24, 03:05:00,VALID,915.023,VALID,0,VALID,100,VALID,-0.101885,VALID,19.5533,VALID,37,VALID,0.968932,
2007-12-24, 03:06:00,VALID,915.011,VALID,0,VALID,100,VALID,-0.101885,VALID,19.5273,VALID,36,VALID,0.70694,
2007-12-24, 03:07:00,VALID,915.008,VALID,0,VALID,100,VALID,-0.0679233,VALID,19.5241,VALID,36,VALID,0.336509,
2007-12-24, 03:08:00,VALID,914.972,VALID,0,VALID,100,VALID,-0.0679233,VALID,19.5241,VALID,36,VALID,0.0272569,
2007-12-24, 03:09:00,VALID,914.957,VALID,0,VALID,100,VALID,-0.0339617,VALID,19.5303,VALID,38,VALID,0.572173,
2007-12-24, 03:10:00,VALID,914.936,VALID,0,VALID,100,VALID,-0.0849042,VALID,19.5306,VALID,37,VALID,0.461496,
2007-12-24, 03:11:00,VALID,914.914,VALID,0,VALID,100,VALID,-0.0679233,VALID,19.5468,VALID,34,VALID,0.0177734,
2007-12-24, 03:12:00,VALID,914.878,VALID,0,VALID,100,VALID,-0.0509425,VALID,19.5468,VALID,33,VALID,0.408288,
2007-12-24, 03:13:00,VALID,914.839,VALID,0,VALID,100,VALID,-0.0509425,VALID,19.5306,VALID,32,VALID,0.984947,
2007-12-24, 03:14:00,VALID,914.804,VALID,0,VALID,100,VALID,-0.0509425,VALID,19.5368,VALID,33,VALID,0.463481,
2007-12-24, 03:15:00,VALID,914.778,VALID,0,VALID,100,VALID,-0.0849042,VALID,19.5338,VALID,33,VALID,0.0465116,
2007-12-24, 03:16:00,VALID,914.759,VALID,0,VALID,100,VALID,-0.0339617,VALID,19.5206,VALID,33,VALID,0,
2007-12-24, 03:17:00,VALID,914.71,VALID,0,VALID,100,VALID,-0.0679233,VALID,19.5179,VALID,20,VALID,0.469658,
2007-12-24, 03:18:00,VALID,914.699,VALID,0,VALID,100,VALID,-0.0679233,VALID,19.5144,VALID,10,VALID,0.545922,
2007-12-24, 03:19:00,VALID,914.652,VALID,0,VALID,100,VALID,-0.0849042,VALID,19.5079,VALID,10,VALID,0.440304,
2007-12-24, 03:20:00,VALID,914.632,VALID,0,VALID,100,VALID,-0.0849042,VALID,19.4977,VALID,4,VALID,0.448509,
2007-12-24, 03:21:00,VALID,914.626,VALID,0,VALID,100,VALID,-0.0849042,VALID,19.4979,VALID,359,VALID,0.462209,
2007-12-24, 03:22:00,VALID,914.62,VALID,0,VALID,100,VALID,-0.0849042,VALID,19.4817,VALID,359,VALID,0.566497,
2007-12-24, 03:23:00,VALID,914.617,VALID,0,VALID,100,VALID,-0.0679233,VALID,19.4817,VALID,359,VALID,0.560594,
2007-12-24, 03:24:00,VALID,914.608,VALID,0,VALID,100,VALID,-0.101885,VALID,19.4722,VALID,355,VALID,0.312305,
2007-12-24, 03:25:00,VALID,914.591,VALID,0,VALID,100,VALID,-0.0679233,VALID,19.4722,VALID,355,VALID,0,
2007-12-24, 03:26:00,VALID,914.578,VALID,0,VALID,100,VALID,-0.0849042,VALID,19.4625,VALID,355,VALID,0,
2007-12-24, 03:27:00,VALID,914.579,VALID,0,VALID,100,VALID,-0.0169808,VALID,19.4615,VALID,355,VALID,0,
2007-12-24, 03:28:00,VALID,914.568,VALID,0,VALID,100,VALID,0.0169808,VALID,19.471,VALID,355,VALID,0,
2007-12-24, 03:29:00,VALID,914.576,VALID,0,VALID,100,VALID,0.0169808,VALID,19.4545,VALID,355,VALID,0,
2007-12-24, 03:30:00,VALID,914.571,VALID,0,VALID,100,VALID,0,VALID,19.4483,VALID,355,VALID,0,
2007-12-24, 03:31:00,VALID,914.564,VALID,0,VALID,100,VALID,0,VALID,19.4448,VALID,355,VALID,0,
2007-12-24, 03:32:00,VALID,914.553,VALID,0,VALID,100,VALID,0,VALID,19.4517,VALID,355,VALID,0,
2007-12-24, 03:33:00,VALID,914.547,VALID,0,VALID,100,VALID,0.0169808,VALID,19.4388,VALID,355,VALID,0,
2007-12-24, 03:34:00,VALID,914.539,VALID,0,VALID,100,VALID,0.0169808,VALID,19.4448,VALID,355,VALID,0,
2007-12-24, 03:35:00,VALID,914.532,VALID,0,VALID,100,VALID,0,VALID,19.4448,VALID,355,VALID,0,
2007-12-24, 03:36:00,VALID,914.532,VALID,0,VALID,100,VALID,0,VALID,19.4485,VALID,355,VALID,0,
2007-12-24, 03:37:00,VALID,914.532,VALID,0,VALID,100,VALID,0,VALID,19.435,VALID,355,VALID,0,
2007-12-24, 03:38:00,VALID,914.512,VALID,0,VALID,100,VALID,-0.0169808,VALID,19.429,VALID,355,VALID,0,
2007-12-24, 03:39:00,VALID,914.499,VALID,0,VALID,100,VALID,-0.0169808,VALID,19.429,VALID,355,VALID,0,
2007-12-24, 03:40:00,VALID,914.491,VALID,0,VALID,100,VALID,0,VALID,19.4223,VALID,355,VALID,0,
2007-12-24, 03:41:00,VALID,914.483,VALID,0,VALID,100,VALID,0,VALID,19.4126,VALID,355,VALID,0,
2007-12-24, 03:42:00,VALID,914.462,VALID,0,VALID,100,VALID,-0.0339617,VALID,19.4133,VALID,355,VALID,0,
2007-12-24, 03:43:00,VALID,914.476,VALID,0,VALID,100,VALID,-0.101885,VALID,19.4038,VALID,355,VALID,0,
2007-12-24, 03:44:00,VALID,914.463,VALID,0,VALID,100,VALID,-0.101885,VALID,19.3878,VALID,355,VALID,0,